Other Surface Observations
Issued by NWS

Home | Current Version | Previous Version | Text Only | Print | Product List | Glossary On
Versions: 1 2 3 4 5 6 7 8 9 10 11 12 13 14 15 16 17 18 19 20 21 22 23 24 25 26 27 28 29 30 31 32 33 34 35 36 37 38 39 40 41 42 43 44 45 46 47 48 49 50
319
SXUS52 KTAE 260018
OSOTAE
OSOTAE
North Florida/South Alabama/Southwest Georgia Weather Roundup
National Weather Service Tallahassee Florida
800 PM EDT WED APR 25 2018

Note: "fair" indicates few or no clouds below 12,000 feet with no
significant weather and/or obstructions to visibility.

!FLZ017-115-028-034-025-260100
...North Florida...

CITY           SKY/WX    TMP DP  RH WIND       PRES   REMARKS
TALLAHASSEE    FAIR      76  54  46 NW10      29.88R
APALACHICOLA   FAIR      70  61  73 NW10      29.91R
PERRY          FAIR      70  60  70 SW6       29.90S
CROSS CITY     FAIR      68  60  74 W8        29.89S
JACKSONVILLE   FAIR      73  57  57 W6        29.83R
$$

!FLZ112-006-005-002-011-260100
...Florida Panhandle...

CITY           SKY/WX    TMP DP  RH WIND       PRES   REMARKS
MARIANNA       FAIR      73  55  53 N10       29.91R
BONIFAY        FAIR      71  57  61 NW6       29.92R
PANAMA CITY NW FAIR      70  61  73 W13       29.90R
TYNDALL AFB    FAIR      69  61  75 W13       29.92R
TYND DRONE APT FAIR      69  62  79 NW3       29.92R
DE FUNIAK SPR  FAIR      72  55  54 N7        29.92S
EGLIN AFB      PTCLDY    76  55  46 N7        29.90R
DESTIN         FAIR      73  62  68 W7        29.91R
HURLBURT       PTCLDY    71  63  75 SW7       29.90S
CRESTVIEW      FAIR      74  55  51 N3        29.93S
PENSACOLA      FAIR      76  53  44 N9        29.91S
$$

!ALZ063-066-260100
...South Alabama...

CITY           SKY/WX    TMP DP  RH WIND       PRES   REMARKS
DOTHAN         FAIR      71  53  52 N10       29.95R
OZARK CAIRNS   FAIR      70  56  61 NW6       29.92S
FT RUCKER HELI FAIR      68  56  64 NW5       29.92S
RUCKER HELI 3  FAIR      69  55  61 N5        29.92S
RUCKER HELI 2  FAIR      70  56  60 N5        29.91S
FLORALA APT    FAIR      69  53  56 N5        29.95R
ANDALUSIA      FAIR      72  54  53 NW6       29.92F
TROY           FAIR      68  55  63 N3        29.93F
EUFALA         MOCLDY    67  56  67 CALM      29.91S
MOBILE         FAIR      76  53  44 N6        29.93S
$$

!GAZ120>161-260100
...Southwest and South Central Georgia...

CITY           SKY/WX    TMP DP  RH WIND       PRES   REMARKS
THOMASVILLE    FAIR      73  55  53 NW8       29.89S
BAINBRIDGE       N/A     73  59  60 NW9       29.91R
MOODY AFB      FAIR      73  55  51 NW10      29.86R
VALDOSTA       FAIR      72  55  55 VRB3      29.87R
MOULTRIE       FAIR      72  54  53 NW7       29.90R
BLAKELY        FAIR      72  55  56 N6        29.92S
ALBANY         CLOUDY    72  55  55 NW10      29.91R
TIFTON         FAIR      69  56  63 NW13      29.89R
FITZGERALD     FAIR      70  56  60 NW7       29.91R
CORDELE        FAIR      72  54  53 NW5       29.91S
AMERICUS       MOCLDY    66  46  48 NW9       29.93R
HOMERVILLE     FAIR      72  55  56 NW5       29.87R
$$

!GMZ750-755-770-775-260100
...Coastal and Buoy Obs...

STATION/POSITION TIME  TEMP    WIND        PRES    VSBY  WAVE
                       AIR SEA DIR/SP/G                  HT/PER
                 (UTC) (F)     (DEG/KT/KT) (MB)    (MI)  (FT/S)
KEATON BEACH     0000   69     250/ 14/ 16 1012.5R
CEDAR KEY        0000   69     290/  8/ 13 1012.9R
C TOWER          0000   68     300/ 22/ 23 1012.8R
APALACHICOLA BUO NOT AVBL
PANAMA CITY BUOY 2350   70 74  300/ 14/ 16 1013.4S         2/ 4
MOBILE BUOY      0000      74  260/  6/  8 1014.0
ORANGE BCH AL BU 0000   70     260/ 14/ 16 1013.3
$$




USA.gov is the U.S. government's official web portal to all federal, state and local government web resources and services.